Retour au catalogue

STARLINK-35069

ActifCommunicationsVLEO
NORAD 66268·PAYLOAD·🇺🇸 United States

Lancé Oct 31, 2025 depuis Vandenberg Space Force Base

Loading…

Prochains Passages (prochaines 24 heures)

TLE

FraisSource: CelesTrak SupGP

Époque: Sep 14, 2026, 21:19 UTC

1 66268C 25247D   26257.88868056  .00033131  00000+0  97909-3 0  2573
2 66268  53.1606  29.6665 0001215  70.5331 257.5872 15.34366541    18

Suivez STARLINK-35069 en temps réel avec AllMySat

Download on the App Store